Terminal Aerodrome Forecast
Issued by NWS Huntsville, AL

Home | Current Version | Previous Version | Text Only | Print | Product List | Glossary On
Versions: 1 2 3 4 5 6 7 8 9 10 11 12 13 14 15 16 17 18 19 20 21 22 23 24 25 26 27 28 29 30 31 32 33 34 35 36
000
FTUS44 KHUN 231120
TAFHSV
TAF
KHSV 231120Z 2312/2412 32017G28KT P6SM OVC018
     FM231800 31012G21KT P6SM OVC015
     FM232200 32010KT P6SM OVC015
     FM240600 33004KT P6SM OVC015=

USA.gov is the U.S. government's official web portal to all federal, state and local government web resources and services.